Regional Weather Roundup
Issued by NWS

Home | Current Version | Previous Version | Graphics & Text | Print | Product List | Glossary Off
Versions: 1 2 3 4 5 6 7 8 9 10 11 12 13 14 15 16 17 18 19 20 21 22 23 24 25 26 27 28 29 30 31 32 33 34 35 36 37 38 39 40 41 42 43 44 45 46 47 48 49 50

000
ASUS43 KDTX 161710
RWRMI
MICHIGAN HOURLY REGIONAL WEATHER ROUNDUP
NATIONAL WEATHER SERVICE DETROIT/PONTIAC MI
100 PM EDT MON OCT 16 2017

NOTE: "FAIR" INDICATES FEW OR NO CLOUDS BELOW 12,000 FEET WITH NO
SIGNIFICANT WEATHER AND/OR OBSTRUCTION TO VISIBILITY.

MIZ047>049-052>055-059>063-066>070-074>076-081>083-161800-
SOUTHEAST LOWER MICHIGAN

CITY           SKY/WX    TMP DP  RH WIND       PRES   REMARKS
ADRIAN         PTSUNNY   55  39  54 W7        30.30F
ALMA           PTSUNNY   54  35  49 SW8       30.29S
ANN ARBOR      SUNNY     54  36  50 W5        30.29F
BAD AXE        SUNNY     51  31  47 NW7       30.29S
CARO           SUNNY     51  33  50 CALM      30.28F
DETROIT CITY   SUNNY     52  32  46 VRB3      30.30F
DETROIT        MOSUNNY   53  35  50 CALM      30.30F
FLINT          SUNNY     52  34  50 SW3       30.30F
GROSSE ILE     SUNNY     53  34  47 NW5       30.29F
HILLSDALE      CLOUDY    52  37  58 W6        30.29S
HOWELL         SUNNY     52  32  46 CALM      30.29S

CITY           SKY/WX    TMP DP  RH WIND       PRES   REMARKS
JACKSON        PTSUNNY   53  39  59 VRB6      30.29F
LAMBERTVILLE   SUNNY     57  35  43 NW6       30.30F
LANSING        CLOUDY    54  35  48 SW7       30.30S
LAPEER         FAIR      51  31  45 NW5       30.29F
MASON          MOSUNNY   54  36  51 SW3       30.29S
MONROE         MOSUNNY   56  34  44 W8        30.30S
MT. CLEMENS    MOSUNNY   52  33  47 N6        30.28S
PONTIAC        MOSUNNY   50  33  52 VRB3      30.28F
PORT HOPE        N/A     51  35  54 NW5       30.27S
PORT HURON     SUNNY     54  34  47 NW8       30.29S
TRI CITIES     SUNNY     52  36  54 S6        30.29F
MIDLAND        FAIR      53  38  56 S6        30.28S
TROY           SUNNY     52  32  46 W6        30.31S
SAGINAW HB     SUNNY     50  32  50 CALM      30.29S
$$
MIZ043>046-050>051-056>058-064>065-071>073-077>080-161800-
SOUTHWEST LOWER MICHIGAN

CITY           SKY/WX    TMP DP  RH WIND       PRES   REMARKS
BATTLE CREEK   PTSUNNY   54  43  66 W7        30.30S
BENTON HARBOR  SUNNY     57  40  52 W13       30.31S
BIG RAPIDS     PTSUNNY   53  38  58 SW7       30.26F
COLDWATER      CLOUDY    54  42  63 W7        30.31R
FREMONT        FAIR      54  45  71 SW7       30.27F
HOLLAND        PTSUNNY   57  42  57 VRB6      30.29F
GRAND RAPIDS   MOSUNNY   56  44  64 SW8       30.28F
IONIA          CLOUDY    53  40  61 SW6       30.29S
LUDINGTON      MOSUNNY   52  38  59 W7        30.27R
MARSHALL       CLOUDY    51  42  69 CALM      30.29F
MOUNT PLEASANT MOSUNNY   55  37  49 SW9       30.26F
MUSKEGON       CLOUDY    57  42  57 W12       30.28F
SOUTH HAVEN    SUNNY     57  41  54 W10G17    30.30S
$$
MIZ016>042-161800-
NORTHERN LOWER MICHIGAN

CITY           SKY/WX    TMP DP  RH WIND       PRES   REMARKS
ALPENA         SUNNY     51  34  52 VRB6      30.25F
BEAVER ISLAND  MOSUNNY   54  38  54 SW13G24   30.18F
BELLAIRE       PTSUNNY   54  39  57 S7        30.22F
CADILLAC       MOSUNNY   54  38  55 SW7G17    30.23F
CHARLEVOIX     PTSUNNY   53  41  63 S13G23    30.23F
FRANKFORT      MOSUNNY   55  38  52 W12       30.23F
GAYLORD        MOSUNNY   49  35  58 SW13      30.22F
GRAYLING       PTSUNNY   49  36  59 SW8       30.24F
HARBOR SPRINGS PTSUNNY   53  38  55 SW10G16   30.20F
HOUGHTON LAKE  PTSUNNY   50  37  61 SW6       30.25F
MANISTEE       MOSUNNY   54  41  61 W7        30.25S
OSCODA         SUNNY     52  31  44 SW3G17    30.26F
PELLSTON       CLOUDY    51  37  58 S10       30.20F
ROGERS CITY    SUNNY     50  34  53 SW9       30.23F
TRAVERSE CITY  MOSUNNY   54  39  57 SW10G18   30.23F
$$
MIZ007>008-015-161800-
EASTERN UPPER MICHIGAN

CITY           SKY/WX    TMP DP  RH WIND       PRES   REMARKS
KINROSS        LGT RAIN  47  40  76 SW9G18    30.18F
MACKINAC ISLAN LGT RAIN  48  39  69 SW9G16    30.19F
NEWBERRY       SUNNY     52  34  51 SW13      30.15F
S. S. MARIE    PTSUNNY   53  40  61 SW13G20   30.15F
MUNISING         N/A     54  38  54 VRB6      30.14F
$$
MIZ004>006-011>014-085-161800-
CENTRAL UPPER MICHIGAN

CITY           SKY/WX    TMP DP  RH WIND       PRES   REMARKS
MANISTIQUE     SUNNY     53  26  34 SW12G17   30.18S
SAWYER-GWINN   SUNNY     48  37  66 SW13      30.15F
$$
MIZ001>003-009>011-084-161800-
WESTERN UPPER MICHIGAN

CITY           SKY/WX    TMP DP  RH WIND       PRES   REMARKS
IRON MOUNTAIN  SUNNY     53  33  46 VRB6G17   30.15F
HOUGHTON       CLOUDY    52  37  56 W15       30.09F
COPPER HARBOR    N/A     54  38  54 NW10G16   30.08F
IRONWOOD       SUNNY     53  35  50 W14       30.13F
$$

ABBREVIATIONS USED IN REMARKS
   TC - TEMPERATURE IN CELSIUS
  WCI - WIND CHILL INDEX
   HX - HEAT INDEX
  VSB - VISIBILITY




USA.gov is the U.S. government's official web portal to all federal, state and local government web resources and services.